RH
79 94 58 52 77 71 100 51 44 66 46 43 22 24 23 18 15 23 53 100 100 100 100 88 100 100 100 100 100 69 64 86 100 100 85 83 52 28 29 41 60 65 63 51 28 44 36 24 34
31 100 91 59 74 100 76 49 55 65 40 24 24 25 21 18 14 21 77 100 100 100 100 88 86 100 100 100 100 83 53 60 93 97 99 70 38 25 26 58 84 82 59 35 48 66 52 46 73
11 81 71 61 77 71 62 67 84 45 40 26 28 25 21 18 14 15 62 98 99 100 98 91 73 79 100 100 90 81 58 56 62 66 66 55 40 33 53 65 100 84 60 54 78 95 56 68 100
10 63 84 86 83 64 37 80 58 51 51 37 36 27 19 17 13 13 18 65 100 100 100 91 74 70 100 97 76 62 70 86 59 49 43 60 45 43 58 74 100 100 96 100 76 58 64 81 94
11 35 50 40 88 70 51 100 66 60 49 48 68 40 20 14 12 13 16 33 90 100 92 90 92 71 75 80 99 94 65 60 49 61 91 77 61 59 82 100 94 91 100 100 78 55 58 89 89
12 50 59 43 67 84 99 100 62 48 50 73 51 30 20 14 11 13 17 28 83 100 86 92 92 100 100 86 88 84 60 58 54 52 62 87 97 96 80 91 80 93 100 92 69 81 95 100 67
12 45 95 52 68 93 100 94 60 53 52 55 47 26 20 16 12 13 18 29 52 91 95 64 92 76 100 98 96 74 64 74 68 95 92 99 96 79 84 84 100 100 92 73 88 100 91 68 65
12 59 100 86 63 56 87 100 94 64 57 54 53 29 24 19 12 13 15 25 35 70 98 56 100 100 100 96 86 86 100 100 100 97 65 57 69 66 86 100 94 75 75 100 100 90 64 54 86
11 26 98 100 100 90 94 100 70 66 44 45 53 39 26 21 15 13 14 22 33 62 81 66 77 100 100 83 100 100 99 100 77 100 72 73 37 62 99 98 73 80 98 95 61 63 65 84 73
10 21 95 89 98 100 100 100 66 70 50 63 55 35 25 28 23 14 13 24 30 43 80 89 74 74 90 99 100 100 94 88 100 72 46 44 64 98 95 58 64 92 100 72 57 80 93 88 83
9 40 100 100 87 100 95 87 91 46 72 42 64 32 30 44 41 22 17 22 33 35 46 89 92 99 98 100 84 99 100 99 87 49 62 67 72 63 60 75 64 93 100 51 60 69 100 100 98
9 47 100 100 81 100 81 70 39 68 73 35 64 30 31 41 45 59 26 24 36 48 68 75 87 91 95 85 70 86 100 78 43 40 47 47 63 71 62 74 54 100 100 60 60 68 99 82 77
8 19 95 98 100 100 91 60 59 70 56 52 69 34 31 37 42 79 85 38 30 42 58 89 99 88 68 60 74 75 66 61 36 54 66 57 59 79 69 64 72 100 100 83 64 44 73 72 87
6 8 33 100 100 100 79 56 76 56 42 92 69 37 35 43 38 69 100 87 52 46 46 65 89 90 100 72 52 47 50 46 44 61 45 48 56 82 77 73 97 100 100 86 67 77 78 96 95
6 7 11 52 100 99 97 71 90 44 100 91 78 51 46 60 40 50 82 100 61 54 55 58 57 87 100 100 89 63 52 63 68 60 75 46 57 90 77 93 100 100 100 88 90 67 81 94 100
9 7 9 66 75 98 100 98 80 96 100 83 74 72 59 43 45 39 64 91 100 59 63 80 42 71 83 80 88 80 99 90 65 50 41 40 83 82 76 82 100 100 92 82 66 76 100 88 99
20 31 12 67 82 100 96 78 77 75 100 79 77 62 62 62 39 44 69 52 95 75 57 87 60 87 80 69 61 86 100 80 100 66 100 100 73 65 50 91 100 100 96 61 52 46 88 96 89
98 96 46 44 69 100 99 100 81 75 100 83 60 59 59 59 38 39 73 58 44 99 92 100 66 78 82 53 69 96 100 91 100 76 75 73 51 47 46 68 99 84 63 30 39 50 59 62 58
93 65 73 72 94 98 100 100 90 95 91 100 74 48 64 51 30 48 50 99 78 58 54 100 100 92 72 80 65 74 82 71 100 53 72 58 52 36 45 62 77 79 34 28 26 46 45 46 49
91 60 77 70 71 70 83 93 98 100 87 63 71 52 73 64 36 40 41 65 69 61 71 71 96 100 91 89 100 100 100 48 51 67 64 57 35 26 27 60 67 75 40 34 38 44 41 34 34
42 80 52 52 58 54 66 66 72 100 98 83 74 66 68 59 50 57 41 58 71 68 65 79 94 100 100 97 96 100 100 100 94 70 52 39 35 28 25 50 57 82 60 33 43 41 45 50 61
10 75 100 46 44 47 44 46 55 80 85 78 63 52 56 64 44 44 49 50 71 31 43 97 32 80 75 100 87 100 97 88 81 72 62 43 30 26 28 59 40 80 79 47 41 39 44 49 71
12 11 20 88 90 66 61 48 48 59 48 38 51 54 71 76 54 52 40 52 57 31 34 71 51 28 25 54 89 94 84 68 67 74 56 45 25 25 34 61 33 77 74 57 53 45 45 54 75
14 12 11 12 76 100 97 66 40 46 66 64 44 33 46 58 39 68 47 44 69 53 40 47 100 42 34 55 70 79 60 63 60 51 37 28 37 28 33 47 37 66 64 64 79 46 54 66 75
22 13 13 10 12 81 100 100 59 34 54 54 53 46 43 58 47 58 39 38 71 85 68 47 87 98 67 54 78 83 67 55 56 55 46 36 38 26 58 47 29 43 63 52 46 52 72 66 68
67 42 17 13 11 12 75 100 100 62 51 37 27 28 30 28 32 52 37 55 65 74 60 35 70 100 63 94 95 86 72 51 46 61 72 68 36 28 69 44 22 37 65 44 48 63 71 70 62
94 84 73 37 15 13 17 53 88 89 90 70 47 34 25 28 42 47 39 56 80 64 68 72 63 97 92 54 58 41 38 36 39 52 67 74 30 88 52 51 25 20 54 52 49 50 52 58 77
61 72 88 84 70 22 15 24 18 72 66 72 48 48 30 29 38 50 27 48 70 51 52 72 90 98 100 100 85 39 34 35 34 48 74 35 80 54 38 59 37 20 27 40 48 58 45 63 74
56 62 64 89 99 76 42 16 28 62 76 65 82 52 59 64 79 76 25 43 68 48 41 48 68 100 99 100 96 35 51 27 44 63 27 42 66 45 59 59 33 28 17 33 34 56 77 70 57
50 45 49 56 94 100 92 86 35 22 86 98 100 100 100 100 100 78 48 42 49 73 33 47 25 58 96 99 99 36 52 32 85 39 23 70 52 62 38 50 40 33 29 30 52 56 36 43 60
Wind_Speed
6 8 5 9 4 5 12 14 18 20 24 23 26 29 30 26 19 19 26 38 37 39 36 38 36 35 33 31 26 23 21 19 18 22 24 21 22 22 20 22 22 23 25 30 25 29 37 41 40
5 7 6 8 6 6 11 16 17 20 21 22 28 31 35 28 19 16 22 19 36 36 38 38 38 33 33 31 29 24 24 23 24 19 20 21 21 22 25 19 22 22 23 27 25 32 35 38 44
8 8 11 7 9 7 10 11 13 17 20 24 30 33 37 30 21 14 25 31 34 36 34 35 36 35 28 30 29 25 24 26 21 22 20 22 22 20 19 19 18 24 27 26 28 34 38 44 43
12 10 11 9 14 11 13 9 11 17 21 25 32 36 40 32 22 11 19 27 36 31 30 31 29 33 30 23 27 28 29 26 23 22 19 19 22 20 16 16 20 22 29 27 31 40 43 43 44
16 14 16 13 16 10 13 10 15 19 22 25 34 38 40 31 23 10 13 22 30 29 27 24 25 24 29 29 28 26 26 25 25 21 17 19 21 19 18 18 19 26 26 29 32 38 40 41 30
20 17 15 9 11 9 14 16 17 25 21 23 31 34 36 31 25 12 7 16 25 34 26 23 16 10 19 23 27 22 17 17 21 24 23 21 19 18 20 25 27 27 25 28 35 40 36 18 5
23 20 21 16 15 12 20 20 23 25 21 24 29 31 33 31 28 16 4 11 24 28 30 25 19 15 9 16 21 16 15 16 14 17 20 19 20 23 24 26 24 18 24 32 39 23 7 8 7
28 26 21 16 12 12 19 16 11 19 18 20 27 29 30 32 28 19 6 7 19 32 32 36 30 25 28 24 22 16 13 11 12 11 11 18 22 20 18 18 17 22 28 35 13 18 14 7 6
30 28 25 15 12 15 18 21 21 18 25 19 24 26 28 31 29 20 8 2 17 31 36 39 39 39 28 29 25 21 14 15 13 11 11 11 15 16 17 14 18 21 27 26 24 12 7 7 2
33 32 26 21 20 16 20 15 23 21 20 19 21 23 25 29 30 21 9 5 12 25 39 40 40 43 37 30 28 25 16 11 18 12 16 11 14 11 12 13 14 20 18 20 16 9 8 5 3
36 35 31 26 25 20 22 18 20 17 13 15 20 18 22 26 33 23 12 6 6 18 28 43 43 39 37 36 29 23 22 21 20 16 13 6 8 8 10 9 14 16 15 14 17 9 4 3 4
39 39 39 38 30 17 15 12 13 12 9 12 17 15 19 19 28 35 19 9 3 10 17 31 36 35 34 33 33 32 24 20 10 11 7 8 8 10 9 10 13 13 15 14 20 19 14 7 12
33 43 44 42 37 23 17 14 11 10 13 10 12 13 16 19 24 30 33 19 8 7 9 21 32 32 28 24 31 30 24 23 15 14 13 13 11 12 7 10 12 11 11 16 13 21 25 16 18
29 33 45 41 37 22 22 19 17 11 11 7 6 10 14 18 19 24 31 25 13 4 6 14 27 32 26 26 22 18 21 21 21 21 18 16 12 12 8 10 14 10 7 14 16 17 19 21 16
27 29 40 42 37 20 14 18 13 9 11 6 2 6 12 17 19 17 23 24 15 5 3 5 19 28 35 27 29 22 26 28 29 24 24 19 8 3 2 4 10 13 7 7 7 14 23 20 20
26 29 32 35 33 27 10 11 16 10 12 11 9 4 9 15 16 16 17 20 23 6 2 3 8 18 20 22 21 21 21 22 14 14 15 18 14 5 1 5 7 4 7 4 13 17 20 17 15
23 24 29 36 29 29 33 19 18 19 19 18 13 7 6 13 17 15 16 15 18 13 4 9 7 17 11 13 14 21 18 17 9 12 11 14 7 4 2 4 4 1 5 12 16 16 18 20 20
24 21 24 33 36 34 29 25 25 18 20 19 16 14 15 16 16 13 13 10 11 15 14 6 8 12 13 13 14 22 10 23 4 5 5 10 0 2 3 1 6 4 9 18 19 19 23 24 25
28 26 24 30 36 35 35 32 33 31 24 24 16 13 13 14 13 9 12 14 14 9 10 6 10 15 14 16 16 16 16 16 7 5 12 6 5 5 5 3 10 11 15 15 26 21 27 26 29
31 30 24 24 26 29 30 31 33 34 36 28 23 13 15 18 8 9 8 14 9 9 13 13 15 15 13 12 24 20 16 19 14 10 10 7 8 8 3 9 14 16 17 16 18 22 29 31 35
31 28 29 28 28 26 22 24 30 30 34 34 30 28 19 17 12 9 12 13 8 10 17 21 15 19 16 19 24 26 17 19 14 10 10 6 9 9 5 13 18 19 17 20 21 27 27 28 32
34 37 29 29 29 30 30 27 26 31 32 31 28 25 23 18 18 19 16 13 11 12 19 24 17 11 19 21 28 24 19 18 18 15 15 13 15 11 11 19 19 19 15 22 24 25 21 27 25
34 37 36 28 32 32 30 29 24 28 29 32 31 31 28 28 23 23 19 14 9 12 11 18 20 9 9 23 28 23 18 18 15 19 15 17 11 12 18 23 20 20 15 17 20 24 21 25 25
22 37 40 36 32 27 25 29 27 28 27 27 28 30 29 22 22 18 17 14 12 13 13 14 21 16 8 16 19 17 18 18 16 12 14 13 14 15 22 25 23 20 17 19 31 30 30 28 25
13 21 30 43 38 36 32 29 28 29 28 28 29 32 32 31 26 19 8 13 12 11 11 15 14 11 9 5 12 13 14 16 16 14 14 14 18 24 30 29 23 23 23 23 34 33 30 26 25
14 13 21 28 39 41 39 40 33 34 33 33 31 36 33 27 29 19 17 12 14 7 7 15 15 7 4 1 7 13 17 21 21 19 17 20 23 32 31 27 27 26 27 30 34 32 25 22 21
19 18 18 18 29 40 47 45 44 41 38 37 33 30 31 29 28 22 22 13 11 5 2 11 7 7 2 4 10 15 20 23 25 24 21 26 29 35 33 28 26 26 32 33 27 25 24 22 18
25 23 23 21 21 32 47 51 45 47 45 40 39 35 32 33 31 30 23 19 19 6 2 7 8 9 12 8 8 11 15 19 24 28 30 31 37 34 29 28 27 27 30 29 25 24 23 20 18
32 31 29 27 26 26 31 47 54 51 53 49 45 43 37 39 40 34 27 23 24 13 7 6 13 11 12 9 12 4 12 18 23 24 29 39 40 33 27 25 24 21 28 30 27 26 25 22 22
38 35 34 32 32 26 30 31 38 55 59 54 49 54 53 43 46 41 37 28 31 25 17 20 17 16 10 8 7 2 7 18 24 23 33 41 38 34 28 24 24 20 27 28 28 27 27 27 24
Wind_Direction
179 201 213 214 253 357 323 341 351 341 347 353 349 350 347 334 316 267 239 229 224 222 219 222 225 230 227 230 237 245 242 247 247 262 264 267 277 295 309 312 312 314 323 319 328 333 330 333 327
235 215 227 205 255 290 303 346 342 347 356 353 351 351 349 338 327 270 239 223 229 222 222 224 227 230 238 237 238 244 244 248 250 263 265 273 290 297 306 318 315 316 320 329 329 328 330 326 330
267 240 227 225 249 290 303 5 350 349 353 350 350 350 347 339 330 277 235 209 222 216 219 221 225 230 238 245 245 249 249 253 259 269 275 284 292 300 311 315 315 326 335 334 328 329 327 328 322
259 241 224 246 237 279 313 351 350 356 352 350 351 348 344 341 337 296 238 224 220 214 213 216 221 231 240 244 245 242 244 261 272 275 284 286 294 300 302 308 319 323 322 324 319 317 317 324 321
249 239 235 252 234 282 321 310 316 340 340 345 345 343 342 347 348 322 239 223 214 206 204 205 212 229 246 239 240 243 244 258 268 275 282 285 280 278 294 317 320 318 317 318 317 323 323 321 314
240 230 226 224 260 322 297 264 286 314 328 340 345 341 342 351 357 348 248 219 212 206 202 199 163 229 241 230 234 236 239 253 262 260 258 269 265 278 287 301 313 315 312 323 319 322 317 313 33
236 231 229 244 255 257 256 264 297 304 331 349 352 348 349 358 359 358 306 213 205 204 197 183 181 208 262 262 223 211 236 249 271 262 254 252 266 277 286 303 313 314 314 317 314 317 358 5 34
240 222 207 230 256 264 260 289 298 305 324 340 356 352 356 0 4 3 353 213 199 199 190 187 169 181 196 239 210 214 244 288 264 281 284 262 269 287 302 307 309 321 321 319 323 327 344 37 68
235 226 221 230 233 238 252 263 278 296 303 318 348 349 354 2 5 9 16 194 195 197 190 190 185 186 188 211 223 228 229 227 258 278 274 279 288 297 297 307 323 313 325 320 335 360 30 75 124
233 227 218 222 247 252 239 250 269 287 302 306 344 354 351 8 11 14 14 77 183 196 196 195 194 197 198 210 223 232 223 202 234 273 296 284 283 290 293 326 321 325 327 343 356 1 10 51 50
231 219 214 224 228 238 234 251 264 286 298 320 348 349 356 22 21 21 21 61 139 182 195 195 202 208 211 222 220 225 223 207 229 285 265 262 270 290 293 317 316 327 348 29 53 23 15 355 73
227 220 217 227 229 242 254 251 263 281 300 330 340 354 2 19 23 29 34 46 122 184 193 205 208 216 222 225 229 226 225 228 247 256 257 243 271 294 307 291 305 311 357 53 57 54 44 52 107
233 223 218 224 228 242 255 257 237 260 278 328 334 358 7 16 23 33 30 35 55 186 208 204 208 216 218 230 224 222 232 234 249 259 264 267 278 289 287 294 312 293 345 44 55 53 59 79 93
238 231 225 229 236 244 254 249 240 236 260 299 328 347 10 27 26 40 29 29 35 69 181 206 213 208 219 225 210 234 224 225 248 263 260 268 267 263 282 296 302 275 304 37 79 46 57 71 76
243 235 223 226 230 240 253 238 228 232 259 236 268 338 5 31 24 43 32 15 30 57 178 214 212 218 223 222 228 235 229 245 253 266 251 259 212 57 69 295 300 297 321 38 25 48 57 68 72
254 243 224 210 220 211 252 206 230 220 231 236 212 330 354 10 360 13 15 25 12 74 183 192 188 188 211 223 220 224 217 226 231 223 225 181 151 100 296 34 328 253 306 43 67 65 66 74 58
242 236 218 207 203 199 207 214 218 214 229 224 219 241 326 341 338 354 1 29 12 29 158 197 164 170 180 183 185 189 180 177 173 167 149 147 130 131 122 55 296 44 108 90 81 86 85 76 73
223 217 211 212 212 211 200 219 217 218 224 231 248 252 290 309 327 341 3 14 21 15 18 195 194 177 182 177 191 175 179 187 202 166 142 176 193 344 137 22 159 126 107 115 100 92 92 85 87
218 218 210 207 214 219 225 226 229 242 240 232 264 254 283 308 319 334 343 350 353 344 340 18 346 208 196 185 188 190 199 181 206 210 148 150 200 4 175 182 159 163 134 133 115 94 106 105 100
214 220 216 217 219 231 235 235 245 250 244 241 259 256 281 292 299 291 333 338 348 350 343 309 306 300 275 258 209 211 215 216 235 225 226 249 278 299 273 183 169 160 147 149 126 117 114 114 110
223 210 225 239 235 241 243 251 251 246 253 252 257 263 266 273 282 298 308 322 324 325 323 341 264 242 262 258 230 231 211 221 191 191 204 236 279 283 241 173 170 157 155 164 143 140 124 121 112
232 228 227 237 247 248 254 254 250 248 238 246 256 262 258 272 277 282 283 294 290 304 311 342 348 266 235 240 210 215 220 232 241 238 243 275 281 262 217 178 171 177 160 164 157 148 133 137 126
241 236 241 233 241 246 247 244 245 243 244 241 242 252 256 272 274 278 267 265 278 311 328 343 2 352 217 190 185 201 214 224 234 250 249 277 242 220 202 173 169 180 159 150 163 166 154 143 134
248 242 236 241 236 235 238 247 244 239 236 241 247 250 252 253 266 291 248 254 274 308 318 335 359 28 81 162 170 195 205 203 216 236 249 238 214 204 188 170 170 170 172 160 148 152 149 141 139
273 247 245 241 237 234 234 235 240 243 237 236 241 248 253 250 249 274 252 257 273 301 326 329 4 6 44 106 176 196 212 213 210 209 225 227 203 190 178 170 169 174 172 164 147 152 150 148 144
301 297 253 240 243 238 235 236 233 245 252 253 254 243 243 247 241 259 270 274 244 269 339 316 337 335 27 259 227 218 213 216 213 201 206 209 198 183 171 167 170 175 169 164 157 157 154 155 156
273 276 284 267 240 237 237 233 237 236 237 249 251 241 238 239 235 273 266 266 225 206 2 344 346 331 301 234 251 246 235 224 213 201 198 192 183 175 172 170 172 182 177 173 176 180 178 174 167
265 263 262 268 273 243 237 239 234 234 237 235 246 240 240 235 250 272 263 257 233 203 323 340 2 7 336 334 291 259 227 223 199 189 184 179 175 173 175 175 182 187 181 184 188 187 191 187 178
264 261 257 250 256 265 249 240 236 233 232 233 234 240 237 241 248 254 255 244 226 205 248 294 336 345 351 337 322 280 221 198 184 183 176 170 169 169 175 185 183 186 189 192 193 189 194 197 202
265 255 252 250 247 248 253 256 246 236 233 230 226 229 232 240 247 254 253 232 229 231 244 258 304 310 331 306 342 287 192 191 182 181 176 173 170 172 171 180 179 189 194 196 197 198 199 203 208